sat.trackr.live / text

‹ back to catalog

STARLINK-11567 [DTC]

NORAD 62909 · 2025-027C

PAYLOAD ACTIVE UNKNOWN

§ Identity

Operator
Country
US
Launch date
2025-02-08
Launch site
AFETR
Launch vehicle
Mass (kg)
RCS (m²)

Purposes: comms

External: N2YO · Heavens-Above · Gunter

§ Orbital elements

Epoch: 2026-05-24T16:55:19.299072Z

Period
91.67 min
Inclination
43.0035°
Eccentricity
0.0003133
Mean motion
15.70890513 rev/d
Perigee alt
354.2 km
Apogee alt
358.5 km
Semi-major
6,734.5 km
B*
1.4885e-3
RAAN
249.8016°
Arg perigee
280.8860°
Mean anomaly
79.1655°
Rev number
7,510

§ Raw data

STARLINK-11567 [DTC]1 62909U 25027C   26144.70508448  .00195535  00000+0  14885-2 0  99902 62909  43.0035 249.8016 0003133 280.8860  79.1655 15.70890513 75100

JSON: /api/v1/satellites/62909 · /tle

For live sub-satellite position, see the globe view (requires WebGL).

§ Visibility from observer

Set your observer location to see the next 7 days of passes ≥ 10°. The values pass through the URL so the page stays shareable.

No JS? Fill the form by hand. The geolocation button needs JavaScript.